Weather in Mozhayskoe

Russia / Voronezh Oblast     51°19′06″N   39°39′37″E
temp.,
°C
wind,
m/s
gust,
m/s
humid.,
%
clouds,
%
prec.,
mm/h
press.,
hPa
HPBL,
m
2 march, tue
tue200:00−3wsw499135 0.0 1026232
03:00−1wsw6118551 0.0 1023702
06:00−1wsw71485100 0.0 1020611
09:000wsw71486100 0.0 1018700
12:00+1w71289100 0.0 1016777
15:00+1w71397100 0.3 1014627
18:00+1wnw61298100 1.1 1012505
21:000nw51097100 1.8 1012462
3 march, wed
wed300:000nnw4798100 0.4 1011358
03:00−2nnw5119367 0.4 1013362
06:00−2nw5119013 0.0 1014434
09:00−2nw7119035 0.1 1016795
12:00−1nnw71073100 0.1 10171158
15:00−1nw71065100 0.2 10191246
18:00−2wnw49770 0.0 1019389
21:00−2w410840 0.0 1021356
4 march, thu
thu400:00−1w5108547 0.0 1020394
03:00−2wsw379468 0.0 1019235
06:00−2wsw599390 0.0 1018362
09:00−1wsw6128671 0.0 1017545
12:00+2wsw812680 0.0 1014835
15:00+4wsw914580 0.0 1012965
18:00+2sw716650 0.0 1009643
21:00+2sw717700 0.0 1008642
5 march, fri
fri500:00+3sw8177952 0.0 1007591
03:00+3wsw7149176 0.0 1006510
06:00+2sw61293100 0.1 1007378
09:00+3sw61192100 0.1 1008498
12:00+3sw6989100 0.0 1008631
15:00+4sw41088100 0.0 1007654
18:00+4sw71693100 2.5 1005750
21:00+3ssw41294100 4.9 1004421
6 march, sat
sat600:00+3w51096100 1.1 1004364
03:00+1wnw5998100 1.9 1006454
06:00−2nnw6984100 0.3 1008696
09:00−2nnw6876100 0.3 1011814
12:000nw695370 0.1 10131469
15:00−1nw684734 0.1 10131501
18:00−3nw36610 0.0 1014380
21:00−4n24680 0.0 1015226